St. Cloud, MN

3:21 PM CST on December 18, 2017 (GMT -0600)
Saint Cloud Regional

Weather History for KSTC - February, 2014

Change the Weather History Date:

Saturday, February 8, 2014

  Actual Average Record
Temperature  
Mean Temperature 0 °F 15 °F  
Max Temperature 17 °F 25 °F 55 °F (1991)
Min Temperature -18 °F 5 °F -32 °F (1899)
Degree Days  
Heating Degree Days 65 50  
Month to date heating degree days 521 410  
Since 1 July heating degree days 6071 5512  
Cooling Degree Days 0 0  
Month to date cooling degree days 0 0  
Year to date cooling degree days 0 0  
Moisture  
Dew Point -8 °F    
Average Humidity 70    
Maximum Humidity 79    
Minimum Humidity 61    
Precipitation  
Precipitation 0.00 in 0.01 in 0.90 in (1966)
Month to date precipitation T 0.13  
Year to date precipitation 1.34 0.78  
Snow  
Snow 0.00 in 0.20 in 6.00 in (1937)
Month to date snowfall 0.1 1.8  
Since 1 July snowfall 40.9 29.0  
Snow Depth 16.00 in    
Sea Level Pressure  
Sea Level Pressure 30.20 in    
Wind  
Wind Speed 2 mph (NW)    
Max Wind Speed 9 mph    
Max Gust Speed 13 mph    
Visibility 9 miles    
Events      
T = Trace of Precipitation, MM = Missing Value Source: NWS Daily Summary

Daily Weather History Graph

Daily Weather History Graph

Search for Another Location

Airport or City:

Trip Planner

Search our weather history database for the weather conditions in past years. The results will help you decide how hot, cold, wet, or windy it might be!

Date:

Astronomy

Feb. 08, 2014 Rise Set
Actual Time 7:28 AM CST 5:33 PM CST
Civil Twilight 6:57 AM CST 6:04 PM CST
Nautical Twilight 6:22 AM CST 6:39 PM CST
Astronomical Twilight 5:47 AM CST 7:13 PM CST
Moon 12:23 PM CST (2/8) 2:45 AM CST (2/8)
Length of Visible Light 11h 06m
Length of Day
10h 04m
Waxing Gibbous, 69% of the Moon is Illuminated
Feb 8
Waxing Gibbous
Feb 14
Full
Feb 22
Last Quarter
Mar 1
New
Mar 8
First Quarter

Hourly Weather History & Observations

Time (CST) Temp. Windchill Dew Point Humidity Pressure Visibility Wind Dir Wind Speed Gust Speed Precip Events Conditions
12:53 AM -9.9 °F - -17.0 °F 71% 30.21 in 10.0 mi Calm Calm - N/A   Clear
1:53 AM -13.0 °F - -18.9 °F 75% 30.21 in 10.0 mi Calm Calm - N/A   Clear
2:53 AM -16.1 °F - -24.0 °F 67% 30.20 in 10.0 mi Calm Calm - N/A   Clear
3:53 AM -16.1 °F - -23.1 °F 71% 30.19 in 10.0 mi Calm Calm - N/A   Clear
4:53 AM -17.0 °F - -23.1 °F 74% 30.18 in 10.0 mi Calm Calm - N/A   Clear
5:53 AM -16.1 °F - -23.1 °F 71% 30.19 in 10.0 mi Calm Calm - N/A   Clear
6:53 AM -17.0 °F - -24.0 °F 70% 30.19 in 10.0 mi Calm Calm - N/A   Clear
7:53 AM -16.1 °F - -23.1 °F 71% 30.20 in 10.0 mi Calm Calm - N/A   Clear
8:53 AM -11.0 °F - -17.0 °F 75% 30.20 in 10.0 mi Calm Calm - N/A   Clear
9:53 AM -2.0 °F - -8.0 °F 76% 30.20 in 8.0 mi Calm Calm - N/A   Clear
10:53 AM 1.9 °F - -4.0 °F 76% 30.21 in 9.0 mi Calm Calm - N/A   Clear
11:53 AM 5.0 °F - -2.0 °F 73% 30.19 in 10.0 mi Calm Calm - N/A   Clear
12:53 PM 8.1 °F 1.4 °F -0.9 °F 67% 30.17 in 10.0 mi SW 3.5 mph - N/A   Clear
1:53 PM 10.9 °F 4.7 °F 1.9 °F 67% 30.17 in 10.0 mi SSW 3.5 mph - N/A   Clear
2:53 PM 14.0 °F - 3.0 °F 62% 30.18 in 10.0 mi Calm Calm - N/A   Clear
3:53 PM 15.1 °F - 5.0 °F 64% 30.17 in 10.0 mi Calm Calm - N/A   Clear
4:53 PM 14.0 °F 8.2 °F 3.0 °F 62% 30.19 in 10.0 mi NNW 3.5 mph - N/A   Mostly Cloudy
5:53 PM 10.9 °F 2.9 °F 1.0 °F 64% 30.22 in 10.0 mi North 4.6 mph - N/A   Overcast
6:17 PM 10.4 °F - 1.4 °F 67% 30.11 in 9.0 mi Calm Calm - N/A   Overcast
6:53 PM 10.0 °F - 1.0 °F 67% 30.23 in 9.0 mi Calm Calm - N/A   Overcast
7:53 PM 6.1 °F -2.8 °F -0.9 °F 73% 30.25 in 8.0 mi NW 4.6 mph - N/A   Clear
8:53 PM 3.9 °F -6.9 °F -2.0 °F 76% 30.26 in 8.0 mi WNW 5.8 mph - N/A   Clear
9:53 PM 3.9 °F -6.9 °F -2.0 °F 76% 30.25 in 7.0 mi NW 5.8 mph - N/A   Clear
10:53 PM 3.9 °F -9.4 °F -2.9 °F 73% 30.26 in 8.0 mi NW 8.1 mph - N/A   Clear
11:53 PM 5.0 °F -6.9 °F -5.1 °F 63% 30.26 in 10.0 mi NNW 6.9 mph - N/A   Partly Cloudy